Location: Lane
(33.5226°N, 79.8788°W)
Time: 15:23:33
(UTC+00:00)

deb Explorer IX - Visible Passes

Search period start: 03 October 2022 00:00
Search period end: 13 October 2022 00:00
Orbit: 531 x 1064 km, 38.8° (Epoch: 02 October)

Date Brightness Start Highest point End Pass type
(mag) Time Alt. Az. Time Alt. Az. Time Alt. Az.
03 Oct ? 10:10:30 10° SSW 10:14:39 36° SE 10:19:23 10° E visible
04 Oct ? 09:41:56 20° SSW 09:44:12 32° SE 09:48:37 10° E visible
05 Oct ? 09:13:25 28° SSE 09:13:46 28° SE 09:17:51 10° E visible
06 Oct ? 08:44:49 21° ESE 08:44:49 21° ESE 08:47:03 10° E visible
06 Oct ? 10:25:38 16° WSW 10:29:13 80° NNW 10:34:21 10° ENE visible
07 Oct ? 08:16:08 11° E 08:16:08 11° E 08:16:16 10° E visible
07 Oct ? 09:56:56 36° WSW 09:58:41 84° NNW 10:03:37 10° ENE visible
08 Oct ? 09:28:11 89° NE 09:28:11 89° NE 09:32:53 10° ENE visible
09 Oct ? 08:59:21 36° ENE 08:59:21 36° ENE 09:02:10 10° ENE visible
09 Oct ? 10:40:09 11° WNW 10:44:09 45° N 10:49:00 10° ENE visible
10 Oct ? 08:30:28 16° ENE 08:30:28 16° ENE 08:31:28 10° ENE visible
10 Oct ? 10:11:16 24° WNW 10:13:33 45° N 10:18:11 10° ENE visible
11 Oct ? 09:42:21 42° NNW 09:42:55 45° N 09:47:23 10° ENE visible
12 Oct ? 09:13:23 37° NNE 09:13:23 37° NNE 09:16:37 10° ENE visible
12 Oct ? 10:54:48 10° WNW 10:59:02 47° N 11:03:52 10° E visible
